Effective Sunday, March 17, 2024, the National Weather Service National Data Buoy Center will discontinue its Dial-A-Buoy Interactive Voice Response system. For more information, see Service Change Notice 24-06 (PDF).

Station RKXF1 - Upper Henderson Creek, Rookery Bay Reserve, FL Image indicating link to RSS feed of recent meteorological observations for station RKXF1


Conditions at RKXF1 as of
(1:45 pm EST)
1845 GMT on 02/23/2024:
     

Click on the graph icon in the table below to see a time series plot of the last five days of that observation.

5-day plot - Wind Direction Wind Direction (WDIR):WSW ( 240 deg true )
5-day plot - Wind Speed Wind Speed (WSPD): 8.0 kts
5-day plot - Atmospheric Pressure Atmospheric Pressure (PRES):29.94 in
5-day plot - Air Temperature Air Temperature (ATMP): 76.8 °F
5-day plot - Dew Point Dew Point (DEWP): 62.2 °F
5-day plot -  Wind Speed, Wind Gust and Atmospheric Pressure Combined plot of Wind Speed, Gust, and Air Pressure
Previous observations
TIME
(EST)
5-day plot - Wind Direction
WDIR
 
5-day plot - Wind Speed
WSPD
kts
5-day plot - Wind Gust
GST
kts
5-day plot - Wave Height
WVHT
ft
5-day plot - Dominant Wave Period
DPD
sec
5-day plot - Average Wave Period
APD
sec
5-day plot - Mean Wave Direction
MWD
 
5-day plot - Atmospheric Pressure
PRES
in
5-day plot - Pressure Tendency
PTDY
in
5-day plot - Air Temperature
ATMP
°F
5-day plot - Water Temperature
WTMP
°F
5-day plot - Dew Point
DEWP
°F
5-day plot - Salinity
SAL
psu
5-day plot - Visibility
VIS
nmi
5-day plot - Tide (above MLLW)
TIDE
ft
2024-02-23 01:30 pmWSW 8.0-----29.94- 76.8- 61.7---
2024-02-23 01:15 pmWSW 8.0-----29.97- 76.1- 61.5---
2024-02-23 01:00 pmWSW 8.9-----29.97-0.03 76.3- 61.7---
2024-02-23 12:45 pmWSW 8.9-----29.97- 75.6- 61.0---
2024-02-23 12:30 pmWSW 8.0-----29.97- 76.1- 61.0---
2024-02-23 12:15 pm W 7.0-----30.00- 76.5- 61.0---
2024-02-23 12:00 pmWSW 8.0-----30.00+0.00 75.9- 61.0---
2024-02-23 11:45 am W 6.0-----30.00- 74.7- 61.2---
2024-02-23 11:30 amWSW 7.0-----30.00- 76.1- 61.0---
2024-02-23 11:15 amWSW 8.9-----30.00- 75.4- 60.4---
2024-02-23 11:00 am SW 7.0-----30.03+0.03 73.2- 59.7---
2024-02-23 10:45 amWSW 8.0-----30.03- 74.1- 60.1---
2024-02-23 10:30 amWSW 6.0-----30.03- 72.9- 59.7---
2024-02-23 10:15 am SW 5.1-----30.03- 73.0- 59.9---
2024-02-23 10:00 amSSW 5.1-----30.00+0.00 71.4- 60.1---
2024-02-23 09:45 am S 6.0-----30.00- 70.0- 59.9---
2024-02-23 09:30 am S 5.1-----30.00- 68.2- 59.4---
2024-02-23 09:15 am S 2.9-----30.00- 64.2- 60.3---
2024-02-23 09:00 amSSE 2.9-----30.00+0.03 61.2- 60.1---
2024-02-23 08:45 amSSE 1.9-----30.00- 59.2- 58.3---
2024-02-23 08:30 amSSE 1.9-----30.00- 57.7- 56.8---
2024-02-23 08:15 amSSE 2.9-----30.00- 56.7- 56.1---
2024-02-23 08:00 am SE 1.9-----30.00+0.00 55.4- 54.9---
2024-02-23 07:45 am SE 1.9-----30.00- 54.3- 53.8---
2024-02-23 07:30 amESE 2.9-----30.00- 53.1- 52.5---
2024-02-23 07:15 amESE 2.9-----30.00- 52.7- 51.8---
2024-02-23 07:00 am SE 2.9-----30.00+0.03 52.3- 51.4---
2024-02-23 06:45 amESE 2.9-----30.00- 52.0- 51.1---
2024-02-23 06:30 am E 2.9-----30.00- 52.2- 51.3---
2024-02-23 06:15 amESE 2.9-----29.97- 52.5- 51.6---
2024-02-23 06:00 am SE 2.9-----29.97+0.00 52.7- 51.8---
2024-02-23 05:45 am SE 2.9-----29.97- 53.1- 52.2---
2024-02-23 05:30 am SE 1.9-----29.97- 53.1- 52.2---
2024-02-23 05:15 am E 2.9-----30.00- 52.5- 51.6---
2024-02-23 05:00 amENE 2.9-----30.00+0.00 51.6- 50.7---
2024-02-23 04:45 am NE 2.9-----30.00- 50.9- 50.2---
2024-02-23 04:30 amENE 2.9-----29.97- 50.4- 49.6---
2024-02-23 04:15 am E 1.9-----29.97- 50.5- 49.8---
2024-02-23 04:00 amESE 1.9-----29.97-0.03 50.7- 50.0---
2024-02-23 03:45 am SE 1.9-----29.97- 51.1- 50.2---
2024-02-23 03:30 am S 1.9-----29.97- 51.4- 50.5---
2024-02-23 03:15 amSSE 2.9-----29.97- 51.6- 50.7---
2024-02-23 03:00 am SE 2.9-----29.97-0.06 51.6- 50.7---
2024-02-23 02:45 am E 2.9-----30.00- 51.1- 50.0---
2024-02-23 02:30 am E 2.9-----30.00- 50.7- 49.6---
2024-02-23 02:15 amENE 2.9-----30.00- 50.9- 49.8---
2024-02-23 02:00 am E 1.9-----30.00-0.03 51.6- 50.5---
2024-02-23 01:45 amESE 2.9-----30.00- 51.8- 50.7---
2024-02-23 01:30 am SE 2.9-----30.00- 52.0- 50.9---
2024-02-23 01:15 amESE 1.9-----30.00- 52.0- 50.9---
2024-02-23 01:00 am E 2.9-----30.00-0.06 51.6- 50.2---
2024-02-23 12:45 amENE 2.9-----30.03- 51.8- 50.4---
2024-02-23 12:30 am NE 1.9-----30.03- 52.0- 50.5---
2024-02-23 12:15 am NE 1.0-----30.03- 52.2- 50.7---
2024-02-23 12:00 am S 1.0-----30.03-0.03 52.3- 50.9---
2024-02-22 11:45 pmSSW 2.9-----30.03- 52.3- 50.9---
2024-02-22 11:30 pm SW 2.9-----30.03- 52.3- 50.7---
2024-02-22 11:15 pm SW 2.9-----30.03- 52.5- 50.9---
2024-02-22 11:00 pm SW 2.9-----30.03-0.03 52.7- 51.1---
2024-02-22 10:45 pmWSW 4.1-----30.03- 53.1- 51.4---
2024-02-22 10:30 pmWSW 1.9-----30.03- 53.1- 51.1---
2024-02-22 10:15 pm W 2.9-----30.03- 53.1- 50.9---
2024-02-22 10:00 pm W 1.9-----30.06+0.00 53.1- 50.9---
2024-02-22 09:45 pmWSW 2.9-----30.03- 53.1- 50.5---
2024-02-22 09:30 pmWSW 4.1-----30.03- 53.6- 51.1---
2024-02-22 09:15 pmWSW 2.9-----30.06- 53.8- 50.7---
2024-02-22 09:00 pm W 1.9-----30.06+0.00 54.0- 50.2---
2024-02-22 08:45 pm NW 1.0-----30.06- 54.3- 49.6---
2024-02-22 08:30 pm NW 1.0-----30.06- 55.0- 50.4---
2024-02-22 08:15 pm- 0.0-----30.06- 55.4- 50.0---
2024-02-22 08:00 pm NW 1.9-----30.06+0.00 55.9- 49.3---
2024-02-22 07:45 pm NW 2.9-----30.06- 56.8- 48.7---
2024-02-22 07:30 pm NW 1.9-----30.06- 58.3- 48.7---
2024-02-22 07:15 pm NW 2.9-----30.06- 59.4- 48.6---
2024-02-22 07:00 pm NW 4.1-----30.06+0.00 60.4- 48.0---
2024-02-22 06:45 pm NW 4.1-----30.06- 61.0- 47.1---
2024-02-22 06:30 pmWNW 4.1-----30.06- 62.4- 46.2---
2024-02-22 06:15 pmWNW 2.9-----30.06- 65.3- 44.8---
2024-02-22 06:00 pmWNW 2.9-----30.06+0.00 68.0- 41.2---
2024-02-22 05:45 pmWNW 2.9-----30.06- 70.7- 41.4---
2024-02-22 05:30 pm W 4.1-----30.06- 70.9- 40.1---
2024-02-22 05:15 pm W 5.1-----30.06- 71.4- 38.8---
2024-02-22 05:00 pm W 5.1-----30.06-0.06 72.5- 37.2---
2024-02-22 04:45 pm W 5.1-----30.06- 72.9- 34.5---
2024-02-22 04:30 pm W 5.1-----30.06- 73.4- 31.6---
2024-02-22 04:15 pm W 5.1-----30.06- 73.6- 38.1---
2024-02-22 04:00 pm W 6.0-----30.06-0.06 73.8- 40.1---
2024-02-22 03:45 pm W 6.0-----30.06- 73.9- 41.0---
2024-02-22 03:30 pm W 6.0-----30.06- 73.9- 42.8---
2024-02-22 03:15 pm W 5.1-----30.06- 74.7- 43.3---
2024-02-22 03:00 pm W 5.1-----30.06-0.09 74.7- 41.7---
2024-02-22 02:45 pm W 5.1-----30.09- 75.7- 40.8---
2024-02-22 02:30 pm W 5.1-----30.09- 75.7- 40.8---
2024-02-22 02:15 pm W 5.1-----30.09- 75.9- 40.1---
2024-02-22 02:00 pmWSW 5.1-----30.12-0.06 75.9- 41.9---